User: anonymous
Location: Unspecified
(0.0000°N, 0.0000°E)
Time: 20:48:46
(UTC+02:00)
Language:

Cosmos 1782 Rocket - Orbit

View from above orbital plane
View from above orbital plane
View from above satellite
View from above satellite

Ground track
Ground track

The orbit data is extracted from the following two-line orbital elements,

1 16987U 86074B   14244.43925655  .00000272  00000-0  30861-4 0  4437
2 16987 082.5189 185.1918 0018644 024.5025 115.1205 14.82448823507359
Epoch (UTC): 01 September 2014 10:32:31
Eccentricity: 0.0018644
inclination: 82.5189°
perigee height: 608 km
apogee height: 634 km
right ascension of ascending node: 185.1918°
argument of perigee: 24.5025°
revolutions per day: 14.82448823
mean anomaly at epoch: 115.1205°
orbit number at epoch: 50735

The dashed part of the orbit path shows where the satellite is in the earth's shadow,  

DLR